Back to catalog

STARLINK-32874

AliveCommunicationsVLEO
NORAD 62954·PAYLOAD·🇺🇸 United States

Launched Feb 11, 2025 from Vandenberg Space Force Base

Loading…

Next Passes (next 24 hours)

TLE

FreshSource: CelesTrak SupGP

Epoch: Sep 14, 2026, 22:51 UTC

1 62954C 25029G   26257.95256944  .00045798  00000+0  13536-2 0  2579
2 62954  53.1574  67.3311 0001229  83.5646 125.9613 15.34357225    15

Track STARLINK-32874 in real time with AllMySat

Download on the App Store